Location: Celina Division
(33.3022°N, 96.7580°W)
Time: 14:22:16
(UTC+00:00)

H-2A R/B - Visible Passes

Search period start: 02 July 2022 00:00
Search period end: 12 July 2022 00:00
Orbit: 491 x 536 km, 97.3° (Epoch: 01 April)

Date Brightness Start Highest point End Pass type
(mag) Time Alt. Az. Time Alt. Az. Time Alt. Az.
04 Jul 3.9 10:47:10 10° NNE 10:50:45 42° E 10:54:20 10° S visible
05 Jul 4.9 10:31:05 10° NE 10:34:14 25° E 10:37:24 10° SSE visible
06 Jul 5.5 10:15:21 10° NE 10:17:41 16° E 10:20:01 10° SE visible
10 Jul 4.2 10:42:10 10° NNE 10:45:41 37° E 10:49:13 10° SSE visible
11 Jul 5.1 10:26:04 10° NE 10:29:05 22° E 10:32:06 10° SSE visible
